J6-a Helipad Oil Platform, Netherlands

1:36 PM CET on January 18, 2017 (GMT +0100)
J6-a Sea

Weather History for EHJA - December, 2013

Change the Weather History Date:

Saturday, December 28, 2013

  Actual Average Record
Temperature  
Mean Temperature 44 °F -  
Max Temperature 45 °F - - ()
Min Temperature 44 °F - - ()
Degree Days  
Heating Degree Days 20    
Moisture  
Dew Point 38 °F    
Average Humidity 74    
Maximum Humidity 81    
Minimum Humidity 61    
Precipitation  
Precipitation 0.00 in - - ()
Sea Level Pressure  
Sea Level Pressure 29.33 in    
Wind  
Wind Speed 30 mph ()    
Max Wind Speed 43 mph    
Max Gust Speed -    
Visibility 8.6 miles    
Events      
T = Trace of Precipitation, MM = Missing Value Source: Averaged Metar Reports

Daily Weather History Graph

Daily Weather History Graph

Search for Another Location

Airport or City:

Trip Planner

Search our weather history database for the weather conditions in past years. The results will help you decide how hot, cold, wet, or windy it might be!

Date:

Astronomy

Dec. 28, 2013 Rise Set
Actual Time 9:06 AM CET 4:33 PM CET
Civil Twilight 8:22 AM CET 5:16 PM CET
Nautical Twilight 7:36 AM CET 6:02 PM CET
Astronomical Twilight 6:53 AM CET 6:45 PM CET
Moon 4:02 AM CET (12/28) 1:34 PM CET (12/28)
Length of Visible Light 8h 54m
Length of Day
7h 27m
Waning Crescent, 21% of the Moon is Illuminated
Dec 28
Waning Crescent
Jan 1
New
Jan 8
First Quarter
Jan 16
Full
Jan 24
Last Quarter

Hourly Weather History & Observations

Time (CET) Temp. Windchill Dew Point Humidity Pressure Visibility Wind Dir Wind Speed Gust Speed Precip Events Conditions
12:00 AM 47 °F - 38 °F 61% 29.14 in 13 mi SSW 33.6 mph - -  
12:25 AM 46.4 °F 36.3 °F 37.4 °F 71% 29.15 in 6.2 mi SSW 36.8 mph - N/A   Unknown
12:55 AM 46.4 °F 36.4 °F 39.2 °F 76% 29.15 in 6.2 mi SSW 35.7 mph - N/A   Unknown
1:00 AM 47 °F - 38 °F 63% 29.16 in 13 mi SSW 29.1 mph - -   Partly Cloudy
1:25 AM 46.4 °F 35.7 °F 37.4 °F 71% 29.15 in 6.2 mi SSW 41.4 mph - N/A   Unknown
1:55 AM 46.4 °F 35.7 °F 37.4 °F 71% 29.15 in 6.2 mi SSW 41.4 mph - N/A   Unknown
2:00 AM 46 °F - 38 °F 65% 29.16 in 13 mi SSW 33.6 mph - -  
2:25 AM 46.4 °F 35.6 °F 37.4 °F 71% 29.15 in 6.2 mi SW 42.6 mph - N/A   Unknown
2:55 AM 46.4 °F 36.0 °F 39.2 °F 76% 29.15 in 6.2 mi SW 39.1 mph - N/A   Unknown
3:00 AM 46 °F - 38 °F 66% 29.16 in 14 mi SW 33.6 mph - -  
3:25 AM 46.4 °F 36.1 °F 37.4 °F 71% 29.15 in 6.2 mi SW 38.0 mph - N/A   Unknown
3:55 AM 46.4 °F 36.3 °F 37.4 °F 71% 29.18 in 6.2 mi SW 36.8 mph - N/A   Unknown
4:00 AM 46 °F - 38 °F 65% 29.18 in 14 mi SW 29.1 mph - -  
4:25 AM 46.4 °F 36.7 °F 37.4 °F 71% 29.18 in 6.2 mi SW 33.4 mph - N/A   Unknown
4:55 AM 46.4 °F 36.7 °F 37.4 °F 71% 29.18 in 6.2 mi SW 33.4 mph - N/A   Unknown
5:00 AM 46 °F - 38 °F 67% 29.19 in 16 mi SW 26.8 mph - -   Scattered Clouds
5:25 AM 46.4 °F 36.9 °F 39.2 °F 76% 29.21 in 6.2 mi SSW 32.2 mph - N/A   Unknown
5:55 AM 46.4 °F 36.4 °F 37.4 °F 71% 29.21 in 6.2 mi SSW 35.7 mph - N/A   Unknown
6:00 AM 46 °F - 37 °F 63% 29.22 in 16 mi SSW 29.1 mph - -   Overcast
6:25 AM 46.4 °F 36.9 °F 37.4 °F 71% 29.21 in 6.2 mi SW 32.2 mph - N/A   Unknown
6:55 AM 44.6 °F 34.9 °F 37.4 °F 76% 29.21 in 6.2 mi SW 28.8 mph - N/A   Unknown
7:00 AM 45 °F - 37 °F 65% 29.23 in 16 mi SW 24.6 mph - -   Partly Cloudy
7:25 AM 44.6 °F 34.6 °F 37.4 °F 76% 29.24 in 6.2 mi SW 31.1 mph - N/A   Unknown
7:55 AM 44.6 °F 34.4 °F 37.4 °F 76% 29.24 in 6.2 mi SW 32.2 mph - N/A   Unknown
8:00 AM 45 °F - 37 °F 64% 29.25 in 19 mi SW 26.8 mph - -  
8:25 AM 44.6 °F 34.4 °F 37.4 °F 76% 29.24 in 6.2 mi SW 32.2 mph - N/A   Partly Cloudy
8:55 AM 44.6 °F 34.7 °F 37.4 °F 76% 29.27 in 6.2 mi SW 29.9 mph - N/A   Partly Cloudy
9:00 AM 45 °F - 38 °F 69% 29.28 in 19 mi SW 24.6 mph - -  
9:25 AM 44.6 °F 34.4 °F 37.4 °F 76% 29.27 in 6.2 mi SW 32.2 mph - N/A   Unknown
9:55 AM 44.6 °F 34.4 °F 37.4 °F 76% 29.30 in 6.2 mi SW 32.2 mph - N/A   Partly Cloudy
10:00 AM 45 °F - 39 °F 71% 29.31 in 19 mi SW 26.8 mph - -   Scattered Clouds
10:25 AM 44.6 °F 34.4 °F 37.4 °F 76% 29.30 in 6.2 mi SW 32.2 mph - N/A   Partly Cloudy
10:55 AM 44.6 °F 34.4 °F 39.2 °F 81% 29.33 in 6.2 mi SW 32.2 mph - N/A   Scattered Clouds
11:00 AM 44 °F - 38 °F 72% 29.35 in 22 mi SW 29.1 mph - -   Scattered Clouds
11:25 AM 44.6 °F 34.2 °F 37.4 °F 76% 29.33 in 6.2 mi SW 33.4 mph - N/A   Partly Cloudy
11:55 AM 44.6 °F 34.1 °F 37.4 °F 76% 29.36 in 6.2 mi SW 34.5 mph - N/A   Partly Cloudy
12:00 PM 44 °F - 38 °F 73% 29.37 in 22 mi SW 29.1 mph - -  
12:25 PM 44.6 °F 34.2 °F 37.4 °F 76% 29.36 in 6.2 mi SW 33.4 mph - N/A   Unknown
12:55 PM 44.6 °F 34.6 °F 37.4 °F 76% 29.36 in 6.2 mi SW 31.1 mph - N/A   Unknown
1:00 PM 44 °F - 38 °F 73% 29.37 in 18 mi SW 24.6 mph - -   Partly Cloudy
1:25 PM 44.6 °F 34.4 °F 37.4 °F 76% 29.36 in 6.2 mi SW 32.2 mph - N/A   Partly Cloudy
1:55 PM 44.6 °F 34.7 °F 37.4 °F 76% 29.36 in 6.2 mi SW 29.9 mph - N/A   Partly Cloudy
2:00 PM 44 °F - 38 °F 71% 29.38 in 17 mi SW 26.8 mph - -   Scattered Clouds
2:25 PM 44.6 °F 34.6 °F 37.4 °F 76% 29.36 in 6.2 mi SW 31.1 mph - N/A   Partly Cloudy
2:55 PM 44.6 °F 34.6 °F 37.4 °F 76% 29.36 in 6.2 mi SW 31.1 mph - N/A   Partly Cloudy
3:00 PM 44 °F - 38 °F 71% 29.38 in 19 mi SW 26.8 mph - -   Scattered Clouds
3:25 PM 44.6 °F 34.9 °F 39.2 °F 81% 29.39 in 6.2 mi SW 28.8 mph - N/A   Unknown
3:55 PM 44.6 °F 35.1 °F 37.4 °F 76% 29.39 in 6.2 mi SW 27.6 mph - N/A   Partly Cloudy
4:00 PM 44 °F - 38 °F 72% 29.41 in 19 mi SW 24.6 mph - -   Scattered Clouds
4:25 PM 44.6 °F 34.7 °F 39.2 °F 81% 29.39 in 6.2 mi SW 29.9 mph - N/A   Scattered Clouds
4:55 PM 44.6 °F 34.7 °F 39.2 °F 81% 29.42 in 6.2 mi SW 29.9 mph - N/A   Partly Cloudy
5:00 PM 44 °F - 39 °F 75% 29.42 in 22 mi SW 24.6 mph - -  
5:25 PM 44.6 °F 34.6 °F 37.4 °F 76% 29.42 in 6.2 mi SW 31.1 mph - N/A   Unknown
5:55 PM 44.6 °F 34.7 °F 39.2 °F 81% 29.44 in 6.2 mi SW 29.9 mph - N/A   Unknown
6:00 PM 44 °F - 38 °F 72% 29.45 in 25 mi SW 26.8 mph - -  
6:25 PM 44.6 °F 34.6 °F 37.4 °F 76% 29.44 in 6.2 mi SW 31.1 mph - N/A   Unknown
6:55 PM 44.6 °F 34.4 °F 39.2 °F 81% 29.44 in 6.2 mi SW 32.2 mph - N/A   Partly Cloudy
7:00 PM 45 °F - 39 °F 71% 29.47 in 22 mi SW 24.6 mph - -   Partly Cloudy
7:25 PM 44.6 °F 34.6 °F 39.2 °F 81% 29.47 in 6.2 mi SW 31.1 mph - N/A   Partly Cloudy
7:55 PM 44.6 °F 34.6 °F 39.2 °F 81% 29.47 in 6.2 mi SW 31.1 mph - N/A   Unknown
8:00 PM 45 °F - 39 °F 71% 29.50 in 28 mi SW 26.8 mph - -  
8:25 PM 44.6 °F 34.7 °F 39.2 °F 81% 29.47 in 6.2 mi SW 29.9 mph - N/A   Unknown
8:55 PM 44.6 °F 34.6 °F 39.2 °F 81% 29.50 in 6.2 mi WSW 31.1 mph - N/A   Partly Cloudy
9:00 PM 45 °F - 39 °F 73% 29.52 in 28 mi SW 24.6 mph - -   Scattered Clouds
9:25 PM 44.6 °F 34.6 °F 39.2 °F 81% 29.50 in 6.2 mi WSW 31.1 mph - N/A   Partly Cloudy
9:55 PM 44.6 °F 34.4 °F 39.2 °F 81% 29.53 in 6.2 mi WSW 32.2 mph - N/A   Partly Cloudy
10:00 PM 45 °F - 39 °F 72% 29.54 in 22 mi WSW 26.8 mph - -  
10:25 PM 44.6 °F 34.6 °F 39.2 °F 81% 29.53 in 6.2 mi SW 31.1 mph - N/A   Unknown
10:55 PM 44.6 °F 34.7 °F 39.2 °F 81% 29.53 in 6.2 mi SW 29.9 mph - N/A   Partly Cloudy
11:00 PM 45 °F - 39 °F 73% 29.55 in 22 mi WSW 24.6 mph - -   Scattered Clouds
11:25 PM 44.6 °F 34.7 °F 39.2 °F 81% 29.53 in 6.2 mi WSW 29.9 mph - N/A   Partly Cloudy
11:55 PM 44.6 °F 34.7 °F 39.2 °F 81% 29.56 in 6.2 mi WSW 29.9 mph - N/A   Unknown